Weather History for Volk, WI

Change the Weather History Date:

Saturday, March 22, 2014

  Actual Average Record
Temperature  
Mean Temperature 25 °F -  
Max Temperature 35 °F 43 °F 77 °F (2012)
Min Temperature 14 °F 28 °F 3 °F (2013)
Degree Days  
Heating Degree Days 40    
Moisture  
Dew Point 15 °F    
Average Humidity 62    
Maximum Humidity 87    
Minimum Humidity 34    
Precipitation  
Precipitation 0.00 in - - ()
Sea Level Pressure  
Sea Level Pressure 30.21 in    
Wind  
Wind Speed 15 mph (NW)    
Max Wind Speed 18 mph    
Max Gust Speed 26 mph    
Visibility 10 miles    
Events Snow    
Averages and records for this station are not official NWS values.
T = Trace of Precipitation, MM = Missing Value Source: NWS Daily Summary

Daily Weather History Graph

Daily Weather History Graph

Search for Another Location

Airport:

Trip Planner

Search our weather history database for the weather conditions in past years. The results will help you decide how hot, cold, wet, or windy it might be!

Date:

Astronomy

Mar. 22, 2014 Rise Set
Actual Time 7:00 AM CDT 7:15 PM CDT
Civil Twilight 6:31 AM CDT 7:44 PM CDT
Nautical Twilight 5:57 AM CDT 8:18 PM CDT
Astronomical Twilight 5:23 AM CDT 8:53 PM CDT
Moon 12:44 AM CDT (3/22) 10:34 AM CDT (3/22)
Length of Visible Light 13h 12m
Length of Day
12h 15m
Waning Gibbous, 65% of the Moon is Illuminated
Mar 22
Waning Gibbous
Mar 23
Last Quarter
Mar 30
New
Apr 7
First Quarter
Apr 15
Full

Hourly Weather History & Observations

Time (CDT) Temp. Windchill Dew Point Humidity Pressure Visibility Wind Dir Wind Speed Gust Speed Precip Events Conditions
12:48 AM 35.6 °F 25.5 °F 26.6 °F 70% 29.95 in 10.0 mi WNW 17.3 mph 25.3 mph N/A   Overcast
12:58 AM 34.9 °F 24.9 °F 26.1 °F 70% 29.99 in 10.0 mi WNW 16.1 mph 25.3 mph N/A   Overcast
1:58 AM 34.9 °F 26.2 °F 26.2 °F 71% 30.02 in 10.0 mi NW 12.7 mph 26.5 mph N/A   Overcast
2:23 AM 35.6 °F 28.0 °F 26.6 °F 70% 29.99 in 10.0 mi NW 10.4 mph - N/A   Overcast
2:58 AM 34.5 °F 24.8 °F 28.0 °F 77% 30.03 in 10.0 mi WNW 15.0 mph - N/A   Overcast
3:28 AM 32.0 °F 22.5 °F 28.4 °F 87% 30.01 in 10.0 mi WNW 12.7 mph - N/A   Overcast
3:58 AM 32.5 °F 22.7 °F 28.4 °F 85% 30.05 in 10.0 mi WNW 13.8 mph - N/A   Overcast
4:03 AM 32.0 °F 21.2 °F 28.4 °F 87% 30.03 in 10.0 mi WNW 16.1 mph 23.0 mph N/A   Overcast
4:08 AM 32.0 °F 21.2 °F 28.4 °F 87% 30.03 in 10.0 mi WNW 16.1 mph 23.0 mph N/A   Overcast
4:58 AM 30.9 °F 21.7 °F 26.8 °F 85% 30.07 in 10.0 mi WNW 11.5 mph - N/A   Overcast
5:58 AM 29.3 °F 17.0 °F 23.0 °F 77% 30.12 in 10.0 mi NW 18.4 mph 23.0 mph N/A   Overcast
6:58 AM 27.3 °F 15.2 °F 20.7 °F 76% 30.16 in 10.0 mi NW 16.1 mph 25.3 mph N/A   Overcast
7:43 AM 26.6 °F 14.3 °F 19.4 °F 74% 30.15 in 10.0 mi WNW 16.1 mph 23.0 mph N/A   Overcast
7:55 AM 24.8 °F 12.4 °F 17.6 °F 74% 30.16 in 10.0 mi NW 15.0 mph 25.3 mph N/A Snow Light Snow
7:58 AM 24.8 °F 12.9 °F 17.6 °F 74% 30.20 in 10.0 mi NW 13.8 mph 20.7 mph N/A Snow Light Snow
8:58 AM 24.8 °F 12.4 °F 15.8 °F 69% 30.23 in 10.0 mi WNW 15.0 mph 19.6 mph N/A Snow Light Snow
9:58 AM 24.8 °F 11.5 °F 14.0 °F 64% 30.27 in 10.0 mi WNW 17.3 mph 23.0 mph N/A Snow Light Snow
10:19 AM 24.8 °F 11.9 °F 12.2 °F 59% 30.23 in 10.0 mi WNW 16.1 mph 21.9 mph N/A   Mostly Cloudy
10:58 AM 26.6 °F 14.3 °F 12.2 °F 55% 30.30 in 10.0 mi NNW 16.1 mph 21.9 mph N/A   Mostly Cloudy
11:58 AM 26.6 °F 14.7 °F 8.6 °F 47% 30.30 in 10.0 mi NW 15.0 mph 24.2 mph N/A   Scattered Clouds
12:16 PM 28.4 °F 16.6 °F 8.6 °F 43% 30.26 in 10.0 mi NNW 16.1 mph 20.7 mph N/A   Partly Cloudy
12:58 PM 28.4 °F 17.5 °F 8.6 °F 43% 30.29 in 10.0 mi NW 13.8 mph 24.2 mph N/A   Partly Cloudy
1:58 PM 28.4 °F 16.2 °F 6.8 °F 40% 30.30 in 10.0 mi NW 17.3 mph 23.0 mph N/A   Partly Cloudy
2:58 PM 28.4 °F 17.0 °F 6.8 °F 40% 30.30 in 10.0 mi WNW 15.0 mph 25.3 mph N/A   Partly Cloudy
3:58 PM 28.9 °F 17.3 °F 4.6 °F 36% 30.31 in 10.0 mi WNW 16.1 mph 23.0 mph N/A   Clear
4:03 PM 28.4 °F 17.5 °F 3.2 °F 34% 30.26 in 10.0 mi NNW 13.8 mph 25.3 mph N/A   Clear
4:58 PM 27.7 °F 16.6 °F 3.6 °F 36% 30.33 in 10.0 mi NW 13.8 mph - N/A   Clear
5:58 PM 24.6 °F 11.7 °F 4.5 °F 42% 30.36 in 10.0 mi WNW 16.1 mph - N/A   Clear
6:58 PM 21.9 °F 11.0 °F 3.6 °F 45% 30.38 in 10.0 mi NW 10.4 mph - N/A   Clear
7:58 PM 19.4 °F 7.9 °F 5.7 °F 55% 30.41 in 10.0 mi WNW 10.4 mph - N/A   Partly Cloudy
8:58 PM 18.0 °F 6.9 °F 4.8 °F 57% 30.43 in 10.0 mi WNW 9.2 mph - N/A   Clear
9:58 PM 17.2 °F 4.5 °F 4.5 °F 57% 30.43 in 10.0 mi WNW 11.5 mph - N/A   Clear
10:58 PM 15.4 °F 3.0 °F 4.1 °F 61% 30.46 in 10.0 mi WNW 10.4 mph - N/A   Clear
11:58 PM 14.4 °F 0.9 °F 3.6 °F 62% 30.47 in 10.0 mi NW 11.5 mph - N/A   Clear